Location: *
(41.7492°S, 135.4150°W)
Time: 22:28:36
(UTC+00:00)

Transit 2A - All Passes

Search period start: 28 May 2022 00:00
Search period end: 07 June 2022 00:00
Orbit: 598 x 959 km, 66.7° (Epoch: 27 May)

Date Brightness Start Highest point End Pass type
(mag) Time Alt. Az. Time Alt. Az. Time Alt. Az.
28 May - 01:32:22 10° NNE 01:35:34 18° ENE 01:38:58 10° ESE daylight
28 May - 03:13:30 10° NW 03:18:08 54° SW 03:23:21 10° SSE visible
28 May - 05:01:07 10° SW 05:02:45 11° SSW 05:04:26 10° SSW visible
28 May - 10:16:09 10° S 10:21:11 26° SE 10:26:24 10° ENE night (unlit)
28 May - 11:58:47 10° SW 12:04:54 67° WNW 12:11:13 10° NNE night (unlit)
28 May - 13:46:31 10° W 13:47:08 10° W 13:47:45 10° WNW night (unlit)
29 May - 00:59:57 10° ENE 01:01:34 12° E 01:03:14 10° E daylight
29 May - 02:39:03 10° NNW 02:43:46 79° WSW 02:49:05 10° SSE visible
29 May - 04:25:08 10° WSW 04:28:00 15° SW 04:31:01 10° S visible
29 May - 09:42:10 10° S 09:46:35 20° SE 09:51:08 10° E night (unlit)
29 May - 11:24:25 10° SSW 11:30:36 89° ESE 11:37:00 10° NNE night (unlit)
29 May - 13:09:33 10° WSW 13:13:07 16° WNW 13:16:43 10° NW night (unlit)
30 May - 02:04:48 10° NNW 02:09:29 70° ENE 02:14:43 10° SE visible
30 May - 03:49:43 10° W 03:53:19 20° SW 03:57:12 10° S visible
30 May - 09:08:19 10° S 09:11:53 16° SE 09:15:34 10° ESE night (unlit)
30 May - 10:50:08 10° SSW 10:56:14 66° ESE 11:02:35 10° NE night (unlit)
30 May - 12:34:19 10° WSW 12:39:02 23° WNW 12:43:50 10° NNW night (unlit)
31 May - 01:30:47 10° N 01:35:16 45° ENE 01:40:15 10° SE daylight
31 May - 03:14:35 10° WNW 03:18:42 26° SW 03:23:13 10° S visible
31 May - 08:34:43 10° S 08:37:08 12° SSE 08:39:37 10° ESE night (unlit)
31 May - 10:15:55 10° SSW 10:21:50 48° SE 10:27:58 10° NE night (unlit)
31 May - 11:59:28 10° SW 12:04:55 32° WNW 12:10:27 10° N night (unlit)
01 Jun - 00:57:01 10° N 01:01:08 30° ENE 01:05:36 10° SE daylight
01 Jun - 02:39:41 10° WNW 02:44:09 36° SW 02:49:07 10° SSE visible
01 Jun - 09:41:45 10° SSW 09:47:21 36° SE 09:53:09 10° ENE night (unlit)
01 Jun - 11:24:51 10° SW 11:30:44 46° WNW 11:36:45 10° N night (unlit)
02 Jun - 00:23:38 10° NNE 00:27:03 20° ENE 00:30:42 10° ESE daylight
02 Jun - 02:05:01 10° NW 02:09:41 51° SW 02:14:56 10° SSE visible
02 Jun - 03:52:50 10° SW 03:54:21 11° SSW 03:55:55 10° SSW visible
02 Jun - 09:07:39 10° S 09:12:49 28° SE 09:18:09 10° ENE night (unlit)
02 Jun - 10:50:21 10° SW 10:56:29 64° WNW 11:02:46 10° NNE night (unlit)
02 Jun - 23:50:55 10° NE 23:53:01 13° ENE 23:55:13 10° ESE daylight
03 Jun - 01:30:31 10° NW 01:35:18 75° WSW 01:40:41 10° SSE daylight
03 Jun - 03:16:47 10° WSW 03:19:36 14° SW 03:22:33 10° S visible
03 Jun - 08:33:38 10° S 08:38:12 21° SE 08:42:55 10° E night (unlit)
03 Jun - 10:15:57 10° SSW 10:22:11 87° WNW 10:28:35 10° NNE night (unlit)
03 Jun - 12:01:19 10° WSW 12:04:39 15° WNW 12:08:00 10° NW night (unlit)
04 Jun - 00:56:15 10° NNW 01:00:59 75° ENE 01:06:19 10° SSE daylight
04 Jun - 02:41:19 10° W 02:44:54 19° SW 02:48:45 10° S visible
04 Jun - 07:59:43 10° S 08:03:31 17° SE 08:07:25 10° ESE night (unlit)
04 Jun - 09:41:39 10° SSW 09:47:50 69° ESE 09:54:12 10° NE night (unlit)
04 Jun - 11:25:58 10° WSW 11:30:35 22° WNW 11:35:14 10° NNW night (unlit)
05 Jun - 00:22:10 10° N 00:26:45 49° ENE 00:31:51 10° SE daylight
05 Jun - 02:06:09 10° W 02:10:15 25° SW 02:14:45 10° S visible
05 Jun - 07:26:02 10° S 07:28:46 13° SSE 07:31:34 10° ESE night (unlit)
05 Jun - 09:07:25 10° SSW 09:13:26 51° SE 09:19:37 10° NE night (unlit)
05 Jun - 10:51:05 10° SW 10:56:27 31° WNW 11:01:54 10° NNW night (unlit)
05 Jun - 23:48:22 10° N 23:52:35 32° ENE 23:57:14 10° SE daylight
06 Jun - 01:31:13 10° WNW 01:35:42 34° SW 01:40:40 10° SSE daylight
06 Jun - 06:53:15 10° SSE 06:53:56 10° SSE 06:54:39 10° SE night (unlit)
06 Jun - 08:33:14 10° SSW 08:38:56 38° SE 08:44:50 10° ENE night (unlit)
06 Jun - 10:16:25 10° SW 10:22:16 43° WNW 10:28:14 10° N night (unlit)
06 Jun - 23:14:53 10° NNE 23:18:30 22° ENE 23:22:24 10° ESE daylight
